| time (UTC) | temp F | wind direction | speed MPH | gust MPH | rain 1hr in | rain 24hr in | rain mn in | humidity % | barometer mb |
| 20260906045606 | 64 | 1 | 1.0 | 5.0 | 0.00 | 0.00 | 0.00 | 86 | 1014.1 |
| 20260906045105 | 64 | 44 | 2.0 | 5.0 | 0.00 | 0.00 | 0.00 | 86 | 1014.0 |
| 20260906044604 | 64 | 36 | 2.0 | 5.0 | 0.00 | 0.00 | 0.00 | 86 | 1014.0 |
| 20260906044103 | 64 | 67 | 2.0 | 6.0 | 0.00 | 0.00 | 0.00 | 86 | 1014.1 |
| 20260906043600 | 64 | 1 | 2.0 | 6.0 | 0.00 | 0.00 | 0.00 | 86 | 1014.0 |
| 20260906043104 | 64 | 33 | 2.0 | 3.0 | 0.00 | 0.00 | 0.00 | 86 | 1014.0 |
| 20260906042554 | 64 | 30 | 1.0 | 3.0 | 0.00 | 0.00 | 0.00 | 86 | 1013.9 |
| 20260906042046 | 64 | 30 | 1.0 | 3.0 | 0.00 | 0.00 | 0.00 | 86 | 1014.0 |
| 20260906041546 | 64 | 30 | 1.0 | 2.0 | 0.00 | 0.00 | 0.00 | 86 | 1014.0 |
| 20260906041035 | 64 | 30 | 0.0 | 3.0 | 0.00 | 0.00 | 0.00 | 85 | 1013.9 |
| 20260906040533 | 64 | 30 | 0.0 | 3.0 | 0.00 | 0.00 | 0.00 | 85 | 1013.9 |
| 20260906040032 | 64 | 30 | 1.0 | 2.0 | 0.00 | 0.00 | 0.00 | 85 | 1013.9 |
| 20260906035530 | 64 | 30 | 1.0 | 2.0 | 0.00 | 0.00 | 0.00 | 85 | 1013.9 |
| 20260906035030 | 64 | 30 | 0.0 | 2.0 | 0.00 | 0.00 | 0.00 | 84 | 1013.8 |
| 20260906034759 | 65 | 30 | 0.0 | 2.0 | 0.00 | 0.00 | 0.00 | 84 | 1013.8 |
| 20260906034025 | 65 | 30 | 1.0 | 2.0 | 0.00 | 0.00 | 0.00 | 84 | 1013.8 |
| 20260906033525 | 65 | 30 | 1.0 | 2.0 | 0.00 | 0.00 | 0.00 | 83 | 1013.7 |
| 20260906033023 | 65 | 30 | 1.0 | 2.0 | 0.00 | 0.00 | 0.00 | 83 | 1013.7 |
| 20260906032508 | 65 | 30 | 1.0 | 2.0 | 0.00 | 0.00 | 0.00 | 83 | 1013.7 |
| 20260906032007 | 65 | 30 | 0.0 | 4.0 | 0.00 | 0.00 | 0.00 | 82 | 1013.8 |
| 20260906031506 | 65 | 30 | 2.0 | 5.0 | 0.00 | 0.00 | 0.00 | 81 | 1013.9 |
| 20260906031003 | 65 | 351 | 1.0 | 5.0 | 0.00 | 0.00 | 0.00 | 81 | 1013.8 |
| 20260906030731 | 66 | 40 | 0.0 | 4.0 | 0.00 | 0.00 | 0.00 | 81 | 1013.8 |
| 20260906030225 | 66 | 41 | 1.0 | 4.0 | 0.00 | 0.00 | 0.00 | 80 | 1013.8 |
| 20260906025501 | 66 | 58 | 1.0 | 4.0 | 0.00 | 0.00 | 0.00 | 80 | 1013.9 |
| 20260906024959 | 66 | 51 | 2.0 | 5.0 | 0.00 | 0.00 | 0.00 | 79 | 1013.9 |
| 20260906024500 | 66 | 30 | 2.0 | 6.0 | 0.00 | 0.00 | 0.00 | 79 | 1013.8 |
| 20260906023958 | 66 | 65 | 2.0 | 6.0 | 0.00 | 0.00 | 0.00 | 79 | 1013.7 |
| 20260906023947 | 66 | 44 | 3.0 | 6.0 | 0.00 | 0.00 | 0.00 | 79 | 1013.7 |
| 20260906022956 | 66 | 33 | 3.0 | 6.0 | 0.00 | 0.00 | 0.00 | 78 | 1013.7 |
| 20260906022458 | 66 | 19 | 2.0 | 6.0 | 0.00 | 0.00 | 0.00 | 78 | 1013.8 |
| 20260906021957 | 66 | 33 | 3.0 | 6.0 | 0.00 | 0.00 | 0.00 | 78 | 1013.7 |
| 20260906021455 | 66 | 26 | 2.0 | 6.0 | 0.00 | 0.00 | 0.00 | 79 | 1013.8 |
| 20260906020955 | 66 | 33 | 1.0 | 6.0 | 0.00 | 0.00 | 0.00 | 79 | 1013.7 |
| 20260906020453 | 66 | 359 | 2.0 | 6.0 | 0.00 | 0.00 | 0.00 | 79 | 1013.7 |
| 20260906015954 | 66 | 39 | 2.0 | 6.0 | 0.00 | 0.00 | 0.00 | 79 | 1013.8 |
| 20260906015934 | 66 | 31 | 1.0 | 4.0 | 0.00 | 0.00 | 0.00 | 79 | 1013.8 |
| 20260906014950 | 66 | 23 | 2.0 | 4.0 | 0.00 | 0.00 | 0.00 | 79 | 1013.8 |
| 20260906014451 | 66 | 19 | 2.0 | 4.0 | 0.00 | 0.00 | 0.00 | 79 | 1013.9 |
| 20260906013949 | 66 | 0 | 2.0 | 5.0 | 0.00 | 0.00 | 0.00 | 79 | 1013.9 |
| 20260906013450 | 66 | 39 | 1.0 | 6.0 | 0.00 | 0.00 | 0.00 | 78 | 1013.9 |
| 20260906013210 | 66 | 31 | 2.0 | 6.0 | 0.00 | 0.00 | 0.00 | 79 | 1013.9 |
| 20260906012936 | 66 | 62 | 2.0 | 5.0 | 0.00 | 0.00 | 0.00 | 78 | 1013.9 |
| 20260906011947 | 66 | 41 | 2.0 | 5.0 | 0.00 | 0.00 | 0.00 | 78 | 1013.9 |
| 20260906011446 | 66 | 63 | 2.0 | 5.0 | 0.00 | 0.00 | 0.00 | 78 | 1013.8 |
| 20260906011211 | 66 | 57 | 3.0 | 5.0 | 0.00 | 0.00 | 0.00 | 78 | 1013.8 |
| 20260906010658 | 66 | 359 | 2.0 | 5.0 | 0.00 | 0.00 | 0.00 | 79 | 1013.8 |
| 20260906010157 | 66 | 32 | 3.0 | 5.0 | 0.00 | 0.00 | 0.00 | 79 | 1013.9 |
| 20260906005438 | 66 | 32 | 1.0 | 6.0 | 0.00 | 0.00 | 0.00 | 79 | 1013.8 |
| 20260906004939 | 66 | 58 | 2.0 | 6.0 | 0.00 | 0.00 | 0.00 | 79 | 1013.8 |
| 20260906004436 | 66 | 61 | 1.0 | 5.0 | 0.00 | 0.00 | 0.00 | 80 | 1013.7 |
| 20260906004156 | 66 | 16 | 1.0 | 5.0 | 0.00 | 0.00 | 0.00 | 80 | 1013.6 |
| 20260906003426 | 66 | 51 | 1.0 | 3.0 | 0.00 | 0.00 | 0.00 | 80 | 1013.5 |
| 20260906002926 | 66 | 53 | 2.0 | 4.0 | 0.00 | 0.00 | 0.00 | 80 | 1013.4 |
| 20260906002427 | 66 | 54 | 2.0 | 4.0 | 0.00 | 0.00 | 0.00 | 80 | 1013.4 |
| 20260906001925 | 66 | 47 | 2.0 | 4.0 | 0.00 | 0.00 | 0.00 | 80 | 1013.4 |
| 20260906001644 | 66 | 50 | 1.0 | 6.0 | 0.00 | 0.00 | 0.00 | 80 | 1013.3 |
| 20260906001145 | 66 | 50 | 1.0 | 6.0 | 0.00 | 0.00 | 0.00 | 79 | 1013.4 |
| 20260906000425 | 66 | 0 | 1.0 | 5.0 | 0.00 | 0.00 | 0.00 | 79 | 1013.4 |
| 20260905235924 | 66 | 49 | 1.0 | 3.0 | 0.00 | 0.00 | 0.00 | 80 | 1013.3 |
| 20260905235423 | 66 | 46 | 0.0 | 4.0 | 0.00 | 0.00 | 0.00 | 80 | 1013.3 |
| 20260905234921 | 66 | 46 | 2.0 | 4.0 | 0.00 | 0.00 | 0.00 | 81 | 1013.3 |
| 20260905234419 | 66 | 50 | 1.0 | 2.0 | 0.00 | 0.00 | 0.00 | 81 | 1013.4 |
| 20260905234145 | 66 | 50 | 1.0 | 3.0 | 0.00 | 0.00 | 0.00 | 81 | 1013.3 |
| 20260905233418 | 66 | 50 | 0.0 | 2.0 | 0.00 | 0.00 | 0.00 | 81 | 1013.3 |
| 20260905232911 | 66 | 50 | 0.0 | 3.0 | 0.00 | 0.00 | 0.00 | 81 | 1013.3 |
| 20260905232412 | 66 | 50 | 1.0 | 6.0 | 0.00 | 0.00 | 0.00 | 81 | 1013.2 |
| 20260905232142 | 66 | 50 | 0.0 | 6.0 | 0.00 | 0.00 | 0.00 | 81 | 1013.3 |
| 20260905231409 | 66 | 39 | 1.0 | 3.0 | 0.00 | 0.00 | 0.00 | 81 | 1013.2 |
| 20260905230910 | 66 | 82 | 0.0 | 1.0 | 0.00 | 0.00 | 0.00 | 81 | 1013.1 |
| 20260905230409 | 66 | 82 | 0.0 | 1.0 | 0.00 | 0.00 | 0.00 | 80 | 1013.0 |
| 20260905225907 | 66 | 82 | 0.0 | 1.0 | 0.00 | 0.00 | 0.00 | 80 | 1013.0 |
| 20260905225409 | 66 | 82 | 0.0 | 2.0 | 0.00 | 0.00 | 0.00 | 80 | 1013.2 |
| 20260905224901 | 66 | 82 | 0.0 | 2.0 | 0.00 | 0.00 | 0.00 | 80 | 1013.2 |
| 20260905224615 | 66 | 82 | 0.0 | 3.0 | 0.00 | 0.00 | 0.00 | 80 | 1013.2 |
| 20260905224112 | 66 | 82 | 0.0 | 3.0 | 0.00 | 0.00 | 0.00 | 80 | 1013.2 |
| 20260905223701 | 66 | 18 | 1.0 | 4.0 | 0.00 | 0.00 | 0.00 | 80 | 1013.2 |
| 20260905223559 | 66 | 18 | 1.0 | 4.0 | 0.00 | 0.00 | 0.00 | 80 | 1013.2 |
| 20260905222351 | 67 | 32 | 1.0 | 4.0 | 0.00 | 0.00 | 0.00 | 80 | 1013.2 |
| 20260905221849 | 67 | 33 | 1.0 | 4.0 | 0.00 | 0.00 | 0.00 | 80 | 1013.2 |
| 20260905221839 | 67 | 340 | 0.0 | 3.0 | 0.00 | 0.00 | 0.00 | 80 | 1013.1 |
| 20260905220849 | 67 | 335 | 0.0 | 3.0 | 0.00 | 0.00 | 0.00 | 80 | 1013.0 |
| 20260905220335 | 67 | 186 | 0.0 | 4.0 | 0.00 | 0.00 | 0.00 | 80 | 1013.0 |
| 20260905215835 | 67 | 49 | 1.0 | 4.0 | 0.00 | 0.00 | 0.00 | 80 | 1012.9 |
| 20260905215604 | 67 | 5 | 2.0 | 6.0 | 0.00 | 0.00 | 0.00 | 80 | 1012.8 |
| 20260905214834 | 67 | 20 | 2.0 | 6.0 | 0.00 | 0.00 | 0.00 | 80 | 1012.8 |
| 20260905214325 | 67 | 73 | 1.0 | 5.0 | 0.00 | 0.00 | 0.00 | 80 | 1012.7 |
| 20260905213825 | 67 | 15 | 1.0 | 6.0 | 0.00 | 0.00 | 0.00 | 80 | 1012.8 |
| 20260905213322 | 67 | 21 | 1.0 | 6.0 | 0.00 | 0.00 | 0.00 | 81 | 1012.8 |
| 20260905212823 | 67 | 354 | 2.0 | 6.0 | 0.00 | 0.00 | 0.00 | 81 | 1012.7 |
| 20260905212319 | 67 | 0 | 2.0 | 6.0 | 0.00 | 0.00 | 0.00 | 81 | 1012.6 |
| 20260905211818 | 67 | 36 | 2.0 | 6.0 | 0.00 | 0.00 | 0.00 | 81 | 1012.5 |
| 20260905211543 | 67 | 335 | 2.0 | 4.0 | 0.00 | 0.00 | 0.00 | 81 | 1012.5 |
| 20260905210820 | 67 | 343 | 1.0 | 7.0 | 0.00 | 0.00 | 0.00 | 82 | 1012.4 |
| 20260905210319 | 67 | 33 | 3.0 | 7.0 | 0.00 | 0.00 | 0.00 | 81 | 1012.5 |
| 20260905205818 | 67 | 0 | 2.0 | 9.0 | 0.00 | 0.00 | 0.00 | 81 | 1012.5 |
| 20260905205316 | 67 | 41 | 4.0 | 9.0 | 0.00 | 0.00 | 0.00 | 81 | 1012.5 |
| 20260905204817 | 67 | 48 | 2.0 | 5.0 | 0.00 | 0.00 | 0.00 | 81 | 1012.5 |
| 20260905204314 | 67 | 345 | 2.0 | 6.0 | 0.00 | 0.00 | 0.00 | 81 | 1012.4 |
| 20260905203814 | 67 | 54 | 3.0 | 6.0 | 0.00 | 0.00 | 0.00 | 81 | 1012.4 |
| 20260905203313 | 67 | 93 | 2.0 | 6.0 | 0.00 | 0.00 | 0.00 | 81 | 1012.4 |
| 20260905202811 | 67 | 201 | 2.0 | 5.0 | 0.00 | 0.00 | 0.00 | 81 | 1012.4 |
| 20260905202529 | 67 | 37 | 2.0 | 6.0 | 0.00 | 0.00 | 0.00 | 81 | 1012.4 |
| 20260905201810 | 68 | 46 | 2.0 | 6.0 | 0.00 | 0.00 | 0.00 | 81 | 1012.3 |
| 20260905201310 | 68 | 62 | 2.0 | 6.0 | 0.00 | 0.00 | 0.00 | 81 | 1012.2 |
| 20260905201037 | 67 | 10 | 1.0 | 5.0 | 0.00 | 0.00 | 0.00 | 80 | 1012.2 |
| 20260905200310 | 67 | 276 | 2.0 | 9.0 | 0.00 | 0.00 | 0.00 | 80 | 1012.0 |
| 20260905195807 | 67 | 30 | 1.0 | 10.0 | 0.00 | 0.00 | 0.00 | 81 | 1012.1 |
| 20260905195309 | 67 | 51 | 3.0 | 10.0 | 0.00 | 0.00 | 0.00 | 81 | 1012.1 |
| 20260905194800 | 67 | 19 | 4.0 | 9.0 | 0.00 | 0.00 | 0.00 | 81 | 1012.0 |
| 20260905194524 | 68 | 27 | 2.0 | 5.0 | 0.00 | 0.00 | 0.00 | 82 | 1012.0 |
| 20260905193758 | 68 | 347 | 2.0 | 5.0 | 0.00 | 0.00 | 0.00 | 82 | 1012.1 |
| 20260905193256 | 68 | 34 | 2.0 | 5.0 | 0.00 | 0.00 | 0.00 | 82 | 1012.2 |
| 20260905192758 | 68 | 16 | 2.0 | 5.0 | 0.00 | 0.00 | 0.00 | 82 | 1012.2 |
| 20260905192256 | 68 | 134 | 1.0 | 4.0 | 0.00 | 0.00 | 0.00 | 82 | 1012.2 |
| 20260905191755 | 68 | 275 | 2.0 | 8.0 | 0.00 | 0.00 | 0.00 | 82 | 1012.3 |
| 20260905191257 | 68 | 41 | 4.0 | 8.0 | 0.00 | 0.00 | 0.00 | 81 | 1012.2 |
| 20260905190755 | 68 | 359 | 3.0 | 6.0 | 0.00 | 0.00 | 0.00 | 82 | 1012.2 |
| 20260905190253 | 68 | 181 | 2.0 | 5.0 | 0.00 | 0.00 | 0.00 | 82 | 1012.3 |
| 20260905185751 | 67 | 349 | 1.0 | 6.0 | 0.00 | 0.00 | 0.00 | 82 | 1012.3 |
| 20260905185513 | 67 | 1 | 1.0 | 6.0 | 0.00 | 0.00 | 0.00 | 83 | 1012.2 |
| 20260905184750 | 67 | 0 | 2.0 | 8.0 | 0.00 | 0.00 | 0.00 | 83 | 1012.2 |
| 20260905184507 | 67 | 58 | 2.0 | 8.0 | 0.00 | 0.00 | 0.00 | 83 | 1012.1 |
| 20260905183747 | 67 | 335 | 4.0 | 9.0 | 0.00 | 0.00 | 0.00 | 83 | 1012.2 |
| 20260905183248 | 67 | 44 | 4.0 | 9.0 | 0.00 | 0.00 | 0.00 | 84 | 1012.2 |
| 20260905182748 | 67 | 53 | 3.0 | 7.0 | 0.00 | 0.00 | 0.00 | 85 | 1012.2 |
| 20260905182507 | 67 | 44 | 1.0 | 6.0 | 0.00 | 0.00 | 0.00 | 85 | 1012.3 |
| 20260905181745 | 67 | 305 | 2.0 | 5.0 | 0.00 | 0.00 | 0.00 | 85 | 1012.4 |
| 20260905181245 | 67 | 242 | 2.0 | 5.0 | 0.00 | 0.00 | 0.00 | 85 | 1012.4 |
| 20260905180744 | 67 | 214 | 2.0 | 7.0 | 0.00 | 0.00 | 0.00 | 85 | 1012.3 |
| 20260905180243 | 67 | 51 | 2.0 | 13.0 | 0.00 | 0.00 | 0.00 | 85 | 1012.3 |
| 20260905175742 | 67 | 47 | 5.0 | 13.0 | 0.00 | 0.00 | 0.00 | 84 | 1012.2 |
| 20260905175240 | 67 | 47 | 5.0 | 10.0 | 0.00 | 0.00 | 0.00 | 85 | 1012.2 |
| 20260905175230 | 68 | 307 | 3.0 | 9.0 | 0.00 | 0.00 | 0.00 | 85 | 1012.1 |
| 20260905174238 | 68 | 14 | 5.0 | 16.0 | 0.00 | 0.00 | 0.00 | 85 | 1012.0 |
| 20260905173739 | 68 | 23 | 4.0 | 16.0 | 0.00 | 0.00 | 0.00 | 85 | 1011.9 |
| 20260905173239 | 67 | 32 | 7.0 | 14.0 | 0.00 | 0.00 | 0.00 | 84 | 1011.9 |
| 20260905172737 | 68 | 43 | 6.0 | 14.0 | 0.00 | 0.00 | 0.00 | 84 | 1011.9 |
| 20260905172236 | 68 | 49 | 4.0 | 10.0 | 0.00 | 0.00 | 0.00 | 84 | 1011.8 |
| 20260905171727 | 68 | 14 | 2.0 | 8.0 | 0.00 | 0.00 | 0.00 | 83 | 1011.8 |
| 20260905171226 | 68 | 0 | 3.0 | 11.0 | 0.00 | 0.00 | 0.00 | 83 | 1011.8 |
| 20260905170726 | 68 | 6 | 4.0 | 11.0 | 0.00 | 0.00 | 0.00 | 83 | 1011.7 |
| 20260905170225 | 68 | 359 | 4.0 | 11.0 | 0.00 | 0.00 | 0.00 | 83 | 1011.8 |
| 20260905165952 | 68 | 77 | 4.0 | 11.0 | 0.00 | 0.00 | 0.00 | 83 | 1011.8 |
| 20260905165223 | 68 | 322 | 4.0 | 8.0 | 0.00 | 0.00 | 0.00 | 83 | 1011.6 |
| 20260905164722 | 68 | 29 | 4.0 | 18.0 | 0.00 | 0.00 | 0.00 | 82 | 1011.6 |
| 20260905164221 | 68 | 32 | 4.0 | 18.0 | 0.00 | 0.00 | 0.00 | 82 | 1011.6 |
| 20260905163718 | 69 | 359 | 5.0 | 10.0 | 0.00 | 0.00 | 0.00 | 81 | 1011.7 |
| 20260905163224 | 69 | 11 | 5.0 | 10.0 | 0.00 | 0.00 | 0.00 | 81 | 1011.6 |
| 20260905162719 | 69 | 46 | 4.0 | 9.0 | 0.00 | 0.00 | 0.00 | 81 | 1011.6 |
| 20260905162215 | 69 | 65 | 5.0 | 11.0 | 0.00 | 0.00 | 0.00 | 82 | 1011.5 |
| 20260905161715 | 69 | 19 | 5.0 | 11.0 | 0.00 | 0.00 | 0.00 | 82 | 1011.5 |
| 20260905161213 | 69 | 60 | 3.0 | 9.0 | 0.00 | 0.00 | 0.00 | 82 | 1011.5 |
| 20260905160712 | 68 | 74 | 4.0 | 9.0 | 0.00 | 0.00 | 0.00 | 82 | 1011.5 |
| 20260905160212 | 68 | 46 | 5.0 | 10.0 | 0.00 | 0.00 | 0.00 | 82 | 1011.5 |
| 20260905155711 | 68 | 56 | 4.0 | 10.0 | 0.00 | 0.00 | 0.00 | 82 | 1011.5 |
| 20260905155212 | 69 | 335 | 4.0 | 11.0 | 0.00 | 0.00 | 0.00 | 82 | 1011.6 |
| 20260905154710 | 69 | 35 | 5.0 | 12.0 | 0.00 | 0.00 | 0.00 | 82 | 1011.5 |
| 20260905154431 | 69 | 334 | 5.0 | 12.0 | 0.00 | 0.00 | 0.00 | 82 | 1011.5 |
| 20260905153707 | 69 | 86 | 5.0 | 10.0 | 0.00 | 0.00 | 0.00 | 82 | 1011.4 |
| 20260905153207 | 69 | 46 | 3.0 | 10.0 | 0.00 | 0.00 | 0.00 | 82 | 1011.4 |
| 20260905152707 | 69 | 58 | 6.0 | 11.0 | 0.00 | 0.00 | 0.00 | 81 | 1011.3 |
| 20260905152204 | 69 | 39 | 5.0 | 11.0 | 0.00 | 0.00 | 0.00 | 82 | 1011.4 |
| 20260905151701 | 69 | 53 | 4.0 | 10.0 | 0.00 | 0.00 | 0.00 | 82 | 1011.3 |
| 20260905151201 | 69 | 23 | 3.0 | 8.0 | 0.00 | 0.00 | 0.00 | 82 | 1011.3 |
| 20260905150931 | 69 | 50 | 4.0 | 9.0 | 0.00 | 0.00 | 0.00 | 82 | 1011.3 |
| 20260905150209 | 69 | 41 | 4.0 | 10.0 | 0.00 | 0.00 | 0.00 | 82 | 1011.2 |
| 20260905145700 | 69 | 39 | 6.0 | 10.0 | 0.00 | 0.00 | 0.00 | 81 | 1011.3 |
| 20260905145158 | 70 | 11 | 4.0 | 11.0 | 0.00 | 0.00 | 0.00 | 81 | 1011.1 |
| 20260905144912 | 70 | 30 | 5.0 | 11.0 | 0.00 | 0.00 | 0.00 | 81 | 1011.2 |
| 20260905144159 | 70 | 72 | 6.0 | 11.0 | 0.00 | 0.00 | 0.00 | 80 | 1011.1 |
| 20260905143652 | 71 | 66 | 5.0 | 8.0 | 0.00 | 0.00 | 0.00 | 79 | 1011.0 |
| 20260905143151 | 72 | 86 | 3.0 | 10.0 | 0.00 | 0.00 | 0.00 | 79 | 1010.9 |
| 20260905142919 | 71 | 53 | 4.0 | 10.0 | 0.00 | 0.00 | 0.00 | 79 | 1011.0 |
| 20260905142415 | 71 | 51 | 4.0 | 12.0 | 0.00 | 0.00 | 0.00 | 80 | 1011.0 |
| 20260905141650 | 71 | 11 | 6.0 | 12.0 | 0.00 | 0.00 | 0.00 | 79 | 1011.0 |
| 20260905141150 | 72 | 359 | 5.0 | 9.0 | 0.00 | 0.00 | 0.00 | 78 | 1011.0 |
| 20260905140656 | 72 | 47 | 4.0 | 11.0 | 0.00 | 0.00 | 0.00 | 79 | 1010.9 |
| 20260905140148 | 71 | 54 | 5.0 | 11.0 | 0.00 | 0.00 | 0.00 | 79 | 1011.0 |
| 20260905140139 | 71 | 87 | 6.0 | 10.0 | 0.00 | 0.00 | 0.00 | 78 | 1011.0 |
| 20260905135156 | 71 | 37 | 3.0 | 10.0 | 0.00 | 0.00 | 0.00 | 80 | 1011.0 |
| 20260905134654 | 71 | 55 | 4.0 | 9.0 | 0.00 | 0.00 | 0.00 | 80 | 1010.9 |
| 20260905134400 | 71 | 63 | 5.0 | 9.0 | 0.00 | 0.00 | 0.00 | 80 | 1010.9 |
| 20260905133913 | 71 | 30 | 2.0 | 9.0 | 0.00 | 0.00 | 0.00 | 80 | 1010.9 |
| 20260905133404 | 71 | 63 | 4.0 | 9.0 | 0.00 | 0.00 | 0.00 | 81 | 1010.8 |
| 20260905132640 | 71 | 38 | 3.0 | 8.0 | 0.00 | 0.00 | 0.00 | 81 | 1010.8 |
| 20260905132137 | 70 | 36 | 3.0 | 10.0 | 0.00 | 0.00 | 0.00 | 81 | 1010.6 |
| 20260905131645 | 70 | 51 | 4.0 | 10.0 | 0.00 | 0.00 | 0.00 | 81 | 1010.7 |
| 20260905131414 | 70 | 42 | 5.0 | 10.0 | 0.00 | 0.00 | 0.00 | 82 | 1010.5 |
| 20260905130636 | 70 | 330 | 4.0 | 8.0 | 0.00 | 0.00 | 0.00 | 82 | 1010.6 |
| 20260905130134 | 70 | 22 | 3.0 | 11.0 | 0.00 | 0.00 | 0.00 | 82 | 1010.5 |
| 20260905125638 | 69 | 0 | 5.0 | 11.0 | 0.00 | 0.00 | 0.00 | 82 | 1010.5 |
| 20260905125133 | 69 | 48 | 2.0 | 9.0 | 0.00 | 0.00 | 0.00 | 82 | 1010.4 |
| 20260905124630 | 69 | 30 | 5.0 | 9.0 | 0.00 | 0.00 | 0.00 | 83 | 1010.5 |
| 20260905124129 | 69 | 51 | 3.0 | 9.0 | 0.00 | 0.00 | 0.00 | 83 | 1010.4 |
| 20260905123628 | 68 | 71 | 4.0 | 9.0 | 0.00 | 0.00 | 0.00 | 83 | 1010.3 |
| 20260905123126 | 68 | 68 | 4.0 | 6.0 | 0.00 | 0.00 | 0.00 | 84 | 1010.3 |
| 20260905122625 | 67 | 49 | 4.0 | 8.0 | 0.00 | 0.00 | 0.00 | 84 | 1010.4 |
| 20260905122134 | 67 | 65 | 5.0 | 8.0 | 0.00 | 0.00 | 0.00 | 84 | 1010.3 |
| 20260905121622 | 67 | 25 | 5.0 | 10.0 | 0.00 | 0.00 | 0.00 | 84 | 1010.4 |
| 20260905121610 | 67 | 64 | 5.0 | 10.0 | 0.00 | 0.00 | 0.00 | 85 | 1010.3 |
| 20260905120634 | 67 | 1 | 4.0 | 8.0 | 0.00 | 0.00 | 0.00 | 85 | 1010.3 |
| 20260905120630 | 67 | 32 | 4.0 | 8.0 | 0.00 | 0.00 | 0.00 | 85 | 1010.3 |
| 20260905115617 | 67 | 101 | 2.0 | 6.0 | 0.00 | 0.00 | 0.00 | 85 | 1010.2 |
| 20260905115406 | 66 | 1 | 4.0 | 6.0 | 0.00 | 0.00 | 0.00 | 85 | 1010.2 |
| 20260905114633 | 66 | 58 | 3.0 | 6.0 | 0.00 | 0.00 | 0.00 | 85 | 1010.1 |
| 20260905114354 | 66 | 325 | 2.0 | 6.0 | 0.00 | 0.00 | 0.00 | 86 | 1010.1 |
| 20260905113614 | 66 | 13 | 2.0 | 5.0 | 0.00 | 0.00 | 0.00 | 86 | 1010.1 |
| 20260905113113 | 65 | 355 | 1.0 | 7.0 | 0.00 | 0.00 | 0.00 | 86 | 1010.0 |
| 20260905112837 | 65 | 64 | 2.0 | 7.0 | 0.00 | 0.00 | 0.00 | 86 | 1009.9 |
| 20260905112112 | 65 | 338 | 2.0 | 6.0 | 0.00 | 0.00 | 0.00 | 86 | 1010.0 |
| 20260905111616 | 65 | 321 | 2.0 | 6.0 | 0.00 | 0.00 | 0.00 | 87 | 1009.9 |
| 20260905111112 | 64 | 23 | 3.0 | 6.0 | 0.00 | 0.00 | 0.00 | 87 | 1009.7 |
| 20260905110608 | 64 | 343 | 2.0 | 6.0 | 0.00 | 0.00 | 0.00 | 87 | 1009.8 |
| 20260905110108 | 64 | 60 | 3.0 | 6.0 | 0.00 | 0.00 | 0.00 | 87 | 1009.6 |
| 20260905105624 | 64 | 333 | 1.0 | 4.0 | 0.00 | 0.00 | 0.00 | 87 | 1009.6 |
| 20260905105113 | 64 | 18 | 2.0 | 4.0 | 0.00 | 0.00 | 0.00 | 87 | 1009.5 |
| 20260905104613 | 63 | 26 | 1.0 | 5.0 | 0.00 | 0.00 | 0.00 | 87 | 1009.5 |
| 20260905104111 | 63 | 15 | 2.0 | 5.0 | 0.00 | 0.00 | 0.00 | 87 | 1009.4 |
| 20260905103606 | 63 | 27 | 2.0 | 6.0 | 0.00 | 0.00 | 0.00 | 87 | 1009.5 |
| 20260905103112 | 63 | 1 | 1.0 | 6.0 | 0.00 | 0.00 | 0.00 | 87 | 1009.5 |
| 20260905102827 | 63 | 28 | 2.0 | 5.0 | 0.00 | 0.00 | 0.00 | 87 | 1009.5 |
| 20260905102328 | 63 | 340 | 2.0 | 5.0 | 0.00 | 0.00 | 0.00 | 87 | 1009.5 |
| 20260905101553 | 63 | 0 | 1.0 | 4.0 | 0.00 | 0.00 | 0.00 | 87 | 1009.4 |
| 20260905101047 | 63 | 44 | 1.0 | 6.0 | 0.00 | 0.00 | 0.00 | 88 | 1009.4 |
| 20260905100546 | 63 | 7 | 2.0 | 6.0 | 0.00 | 0.00 | 0.00 | 88 | 1009.5 |
| 20260905100051 | 63 | 8 | 2.0 | 5.0 | 0.00 | 0.00 | 0.00 | 88 | 1009.5 |
| 20260905095543 | 63 | 340 | 2.0 | 7.0 | 0.00 | 0.00 | 0.00 | 88 | 1009.5 |
| 20260905095044 | 63 | 25 | 1.0 | 7.0 | 0.00 | 0.00 | 0.00 | 88 | 1009.4 |
| 20260905094536 | 63 | 359 | 2.0 | 5.0 | 0.00 | 0.00 | 0.00 | 89 | 1009.4 |
| 20260905094034 | 63 | 329 | 2.0 | 6.0 | 0.00 | 0.00 | 0.00 | 89 | 1009.3 |
| 20260905093534 | 62 | 32 | 2.0 | 6.0 | 0.00 | 0.00 | 0.00 | 89 | 1009.4 |
| 20260905093044 | 62 | 334 | 3.0 | 6.0 | 0.00 | 0.00 | 0.00 | 89 | 1009.4 |
| 20260905092538 | 62 | 346 | 2.0 | 6.0 | 0.00 | 0.00 | 0.00 | 89 | 1009.4 |
| 20260905092043 | 62 | 338 | 1.0 | 4.0 | 0.00 | 0.00 | 0.00 | 88 | 1009.4 |
| 20260905091537 | 62 | 353 | 1.0 | 4.0 | 0.00 | 0.00 | 0.00 | 88 | 1009.4 |
| 20260905091045 | 62 | 343 | 1.0 | 3.0 | 0.00 | 0.00 | 0.00 | 88 | 1009.4 |
| 20260905090527 | 62 | 343 | 0.0 | 3.0 | 0.00 | 0.00 | 0.00 | 88 | 1009.3 |
| 20260905090047 | 62 | 343 | 1.0 | 3.0 | 0.00 | 0.00 | 0.00 | 88 | 1009.4 |
| 20260905085821 | 63 | 345 | 1.0 | 3.0 | 0.00 | 0.00 | 0.00 | 88 | 1009.4 |
| 20260905085041 | 63 | 345 | 1.0 | 5.0 | 0.00 | 0.00 | 0.00 | 88 | 1009.4 |
| 20260905084520 | 63 | 345 | 1.0 | 5.0 | 0.00 | 0.00 | 0.00 | 88 | 1009.4 |
| 20260905084012 | 63 | 329 | 0.0 | 3.0 | 0.00 | 0.00 | 0.00 | 88 | 1009.4 |
| 20260905083512 | 63 | 348 | 1.0 | 4.0 | 0.00 | 0.00 | 0.00 | 88 | 1009.3 |
| 20260905083010 | 63 | 353 | 2.0 | 5.0 | 0.00 | 0.00 | 0.00 | 88 | 1009.3 |
| 20260905082509 | 63 | 326 | 2.0 | 5.0 | 0.00 | 0.00 | 0.00 | 88 | 1009.3 |
| 20260905082237 | 63 | 348 | 2.0 | 5.0 | 0.00 | 0.00 | 0.00 | 88 | 1009.2 |
| 20260905081508 | 63 | 359 | 1.0 | 4.0 | 0.00 | 0.00 | 0.00 | 88 | 1009.3 |
| 20260905081008 | 63 | 298 | 1.0 | 5.0 | 0.00 | 0.00 | 0.00 | 88 | 1009.3 |
| 20260905080507 | 64 | 307 | 2.0 | 5.0 | 0.00 | 0.00 | 0.00 | 88 | 1009.1 |
| 20260905080006 | 63 | 0 | 2.0 | 5.0 | 0.00 | 0.00 | 0.00 | 88 | 1009.1 |
| 20260905075506 | 63 | 337 | 2.0 | 5.0 | 0.00 | 0.00 | 0.00 | 89 | 1009.2 |
| 20260905075005 | 63 | 334 | 2.0 | 4.0 | 0.00 | 0.00 | 0.00 | 89 | 1009.1 |
| 20260905074504 | 63 | 331 | 2.0 | 5.0 | 0.00 | 0.00 | 0.00 | 89 | 1009.1 |
| 20260905074003 | 63 | 0 | 2.0 | 5.0 | 0.00 | 0.00 | 0.00 | 89 | 1009.2 |
| 20260905073503 | 63 | 311 | 2.0 | 7.0 | 0.00 | 0.00 | 0.00 | 89 | 1009.2 |
| 20260905073003 | 63 | 359 | 0.0 | 7.0 | 0.00 | 0.00 | 0.00 | 89 | 1009.2 |
| 20260905072720 | 63 | 312 | 2.0 | 5.0 | 0.00 | 0.00 | 0.00 | 89 | 1009.3 |
| 20260905072001 | 63 | 298 | 2.0 | 5.0 | 0.00 | 0.00 | 0.00 | 89 | 1009.3 |
| 20260905071500 | 63 | 341 | 2.0 | 5.0 | 0.00 | 0.00 | 0.00 | 89 | 1009.3 |
| 20260905071221 | 63 | 337 | 2.0 | 4.0 | 0.00 | 0.00 | 0.00 | 89 | 1009.4 |
| 20260905070458 | 63 | 352 | 2.0 | 3.0 | 0.00 | 0.00 | 0.00 | 89 | 1009.4 |
| 20260905065958 | 63 | 349 | 2.0 | 3.0 | 0.00 | 0.00 | 0.00 | 89 | 1009.5 |
| 20260905065451 | 63 | 348 | 1.0 | 4.0 | 0.00 | 0.00 | 0.00 | 89 | 1009.6 |
| 20260905064951 | 63 | 313 | 1.0 | 4.0 | 0.00 | 0.00 | 0.00 | 89 | 1009.6 |
| 20260905064451 | 63 | 315 | 1.0 | 4.0 | 0.00 | 0.00 | 0.00 | 89 | 1009.7 |
| 20260905063948 | 63 | 345 | 1.0 | 3.0 | 0.00 | 0.00 | 0.00 | 89 | 1009.8 |
| 20260905063447 | 63 | 328 | 1.0 | 3.0 | 0.00 | 0.00 | 0.00 | 89 | 1009.8 |
| 20260905062945 | 63 | 328 | 0.0 | 3.0 | 0.00 | 0.00 | 0.00 | 89 | 1009.7 |
| 20260905062447 | 63 | 359 | 0.0 | 4.0 | 0.00 | 0.00 | 0.00 | 89 | 1009.7 |
| 20260905061933 | 63 | 349 | 1.0 | 5.0 | 0.00 | 0.00 | 0.00 | 89 | 1009.8 |
| 20260905061424 | 64 | 320 | 2.0 | 5.0 | 0.00 | 0.00 | 0.00 | 89 | 1009.8 |
| 20260905060923 | 64 | 340 | 1.0 | 5.0 | 0.00 | 0.00 | 0.00 | 90 | 1009.7 |
| 20260905060421 | 64 | 323 | 1.0 | 5.0 | 0.00 | 0.00 | 0.00 | 90 | 1009.7 |
| 20260905055920 | 63 | 326 | 2.0 | 5.0 | 0.00 | 0.00 | 0.00 | 90 | 1009.8 |
| 20260905055420 | 63 | 332 | 2.0 | 5.0 | 0.00 | 0.00 | 0.00 | 90 | 1009.8 |
| 20260905054921 | 63 | 304 | 2.0 | 5.0 | 0.00 | 0.00 | 0.00 | 90 | 1009.8 |
| 20260905054419 | 63 | 299 | 2.0 | 5.0 | 0.00 | 0.00 | 0.00 | 90 | 1009.7 |
| 20260905053918 | 63 | 347 | 2.0 | 5.0 | 0.00 | 0.00 | 0.00 | 90 | 1009.8 |
| 20260905053410 | 63 | 328 | 2.0 | 5.0 | 0.00 | 0.00 | 0.00 | 90 | 1009.9 |
| 20260905052912 | 63 | 343 | 3.0 | 6.0 | 0.00 | 0.00 | 0.00 | 91 | 1009.8 |
| 20260905052406 | 63 | 311 | 3.0 | 6.0 | 0.00 | 0.00 | 0.00 | 91 | 1009.7 |
| 20260905051905 | 63 | 342 | 1.0 | 6.0 | 0.00 | 0.00 | 0.00 | 91 | 1009.7 |
| 20260905051404 | 63 | 337 | 1.0 | 6.0 | 0.00 | 0.00 | 0.00 | 91 | 1009.7 |
| 20260905050903 | 63 | 359 | 1.0 | 5.0 | 0.00 | 0.00 | 0.00 | 91 | 1009.7 |
| 20260905050404 | 63 | 317 | 1.0 | 4.0 | 0.00 | 0.00 | 0.00 | 91 | 1009.7 |